Vorticity
nan nan nan nan nan nan nan nan nan nan nan nan nan nan nan nan nan nan nan nan nan nan nan nan nan nan nan nan nan nan nan nan nan nan nan nan nan nan nan nan nan nan nan nan
nan 6 12 10 7 8 4 6 5 11 10 4 5 6 6 2 13 9 11 12 8 6 11 15 8 7 7 7 4 6 9 6 5 5 7 9 10 9 10 10 12 10 9 nan
nan 6 7 7 12 12 7 6 5 9 5 6 8 7 14 7 5 1 7 12 13 10 6 12 10 7 7 7 6 7 11 8 6 4 4 7 7 8 7 9 8 8 14 nan
nan 12 6 12 9 5 7 14 4 0 6 11 4 9 14 18 3 4 7 12 13 7 9 10 10 9 8 8 7 8 11 8 5 6 6 8 6 8 8 8 8 6 5 nan
nan 12 14 10 10 4 8 18 2 0 1 6 4 6 13 16 10 15 11 13 13 9 10 8 8 10 7 7 7 7 9 7 7 6 6 7 8 9 11 11 8 7 7 nan
nan 6 11 7 12 10 19 13 1 -1 8 11 16 3 7 8 8 12 13 17 14 9 10 10 6 9 10 7 6 8 9 7 6 6 7 9 9 6 7 9 9 9 8 nan
nan 8 10 11 8 9 21 7 6 4 10 10 14 13 10 8 11 10 12 22 19 8 8 10 7 6 10 8 5 6 8 8 6 6 6 8 8 8 7 6 6 7 5 nan
nan 8 14 12 12 10 4 6 4 13 9 9 9 8 16 13 6 14 18 12 16 17 11 11 7 6 10 9 7 6 6 7 6 7 7 8 7 8 10 9 7 7 8 nan
nan 6 8 8 13 9 7 11 9 5 7 11 6 2 12 18 13 14 8 5 5 17 16 9 8 6 8 10 9 7 6 7 7 6 7 8 8 11 11 8 8 7 8 nan
nan 14 5 7 11 9 16 4 6 10 13 6 9 12 10 6 13 8 6 7 11 17 15 11 11 8 8 10 9 8 8 9 7 7 7 8 8 9 11 10 8 6 6 nan
nan 10 6 13 8 5 5 6 12 15 8 9 10 10 15 10 10 5 8 8 9 13 13 12 11 12 10 10 10 9 8 8 8 8 9 7 9 10 10 6 8 9 8 nan
nan 1 13 2 8 18 14 7 2 6 9 9 10 7 16 14 10 12 9 7 10 11 15 16 11 11 11 10 10 10 8 8 9 9 9 7 7 8 7 7 9 10 9 nan
nan 8 9 4 11 19 14 11 6 5 16 13 4 8 10 9 11 15 12 6 7 6 16 16 12 11 10 10 10 10 9 8 9 10 8 8 8 7 8 7 7 9 9 nan
nan 15 16 12 7 2 9 11 8 7 5 15 3 10 10 14 8 9 8 12 10 11 15 11 10 10 10 11 10 9 10 10 9 9 9 8 7 7 9 9 7 9 9 nan
nan 14 10 12 11 7 8 10 8 4 7 9 12 10 9 10 15 8 6 21 22 14 12 11 9 9 9 10 9 10 10 9 9 8 9 9 8 8 8 11 8 8 9 nan
nan 12 13 15 10 7 8 12 18 10 7 7 14 12 19 9 5 13 19 18 16 11 11 10 9 9 9 9 9 8 9 10 9 8 8 9 9 8 7 8 11 8 9 nan
nan 8 13 12 9 7 11 14 13 15 11 11 11 10 9 19 13 15 17 14 8 8 9 10 10 7 7 9 9 9 8 9 10 8 9 10 9 9 9 7 10 10 11 nan
nan 11 11 9 10 11 7 12 16 12 7 7 11 20 16 8 15 11 14 16 14 12 10 9 9 10 10 10 9 9 10 10 9 8 9 10 10 9 10 10 9 8 12 nan
nan 9 10 15 9 7 9 9 12 17 13 14 17 15 13 6 5 4 14 14 20 15 14 17 12 9 10 11 11 10 9 10 8 9 7 10 12 9 9 9 8 9 8 nan
nan 12 11 8 12 13 6 1 9 17 8 18 21 8 1 5 4 10 10 9 11 15 17 14 16 15 9 11 11 10 10 9 8 9 9 9 10 11 9 8 7 8 10 nan
nan 11 10 10 7 8 9 7 16 13 9 13 17 7 6 11 9 13 10 9 10 11 10 14 17 15 10 9 11 9 10 10 9 8 10 11 11 10 10 7 9 11 9 nan
nan 10 7 9 8 12 10 10 17 5 12 11 12 12 12 12 12 11 9 9 8 8 10 16 15 10 13 13 10 11 9 9 12 12 10 10 10 9 13 10 8 10 10 nan
nan 8 15 13 6 6 7 14 8 11 7 9 11 12 12 11 12 10 8 7 9 8 10 17 19 13 13 13 10 9 11 13 12 12 9 9 10 10 11 9 7 9 9 nan
nan 13 9 4 5 8 13 7 23 25 5 12 7 9 11 16 14 8 9 9 9 9 10 17 21 16 13 12 11 12 17 14 10 9 9 10 10 9 9 9 9 9 8 nan
nan 7 13 7 -1 13 11 -3 9 16 26 20 6 11 9 12 12 12 9 8 8 12 13 17 14 14 13 13 15 15 12 11 10 10 10 9 10 10 9 9 13 18 15 nan
nan nan nan nan nan nan nan nan nan nan nan nan nan nan nan nan nan nan nan nan nan nan nan nan nan nan nan nan nan nan nan nan nan nan nan nan nan nan nan nan nan nan nan nan
CAPE
0 0 0 0 6 55 54 33 152 198 106 155 530 473 249 244 7 0 0 0 0 0 0 0 0 0 0 0 20 3 185 221 716 1015 1354 1253 1129 1380 1103 1383 1158 1403 888 1327
0 0 0 0 2 94 47 71 118 201 36 353 476 451 8 116 55 134 7 0 0 0 0 0 0 0 10 0 4 0 144 354 823 1168 1194 1122 982 1224 324 682 1531 1454 1412 1492
0 0 0 0 3 39 81 41 38 153 39 311 219 327 77 24 79 2 93 81 0 0 0 0 0 0 1 1 6 164 444 734 974 1032 966 1349 1312 786 109 26 309 181 843 1017
0 0 0 44 111 13 65 58 75 141 76 85 197 92 102 7 66 1 12 167 7 2 0 0 0 6 20 5 5 574 1033 1151 1035 897 1106 1475 1459 1135 464 169 33 128 42 241
0 0 0 0 33 18 22 73 135 172 175 39 123 213 108 4 11 32 0 46 29 7 2 0 0 57 36 10 14 786 1125 1317 1176 1027 1194 1261 966 768 493 119 547 0 103 141
0 0 0 0 0 0 22 121 165 115 32 37 55 38 0 131 97 48 22 3 134 11 20 38 49 264 161 162 262 919 1327 1241 1032 1127 1635 1175 928 314 0 0 0 6 259 231
0 0 0 0 0 0 0 35 19 137 60 8 3 65 31 108 84 111 0 206 236 36 25 139 214 289 606 609 738 967 1429 1211 1018 1035 1459 1536 688 269 0 0 76 347 241 21
0 0 0 0 0 0 0 0 0 0 0 72 32 27 0 11 19 0 0 47 76 69 18 269 324 303 868 975 1016 961 1474 1278 1202 1237 1415 1601 645 990 221 118 141 261 81 0
0 0 0 0 0 0 0 0 0 0 0 31 0 2 54 64 60 6 103 56 8 81 24 99 334 401 463 937 1004 1009 1110 1383 1361 1410 1636 1773 1687 1195 322 129 137 117 15 32
0 0 0 0 0 0 0 0 0 0 0 0 0 2 31 42 36 134 75 88 69 39 93 17 297 419 423 710 840 1000 979 1268 1529 1735 1796 2005 1786 1121 36 0 25 0 0 0
0 0 0 0 0 0 0 0 0 0 0 0 0 3 1 3 2 47 42 50 25 34 80 53 60 397 405 641 849 1094 1120 1124 1483 2118 2029 2112 2073 771 154 0 0 0 0 0
0 0 0 0 0 0 0 0 0 0 0 0 0 0 0 0 3 0 0 1 2 17 56 68 31 308 394 627 787 1234 1301 1414 1481 2218 2259 2224 2321 825 262 123 2 0 0 0
0 0 0 0 0 0 0 0 0 0 0 0 0 0 0 0 0 0 0 0 0 0 225 98 69 327 372 498 889 1337 1430 1655 1674 2063 2313 2335 2516 2045 546 176 34 0 0 0
0 0 0 0 0 0 0 0 0 0 0 0 0 0 0 0 4 0 0 0 0 0 153 119 116 398 353 1044 1194 1446 1608 1805 1859 1911 2221 2410 2421 2448 1397 395 137 29 0 0
0 0 0 0 0 0 0 0 0 0 0 0 0 0 0 1 0 0 0 0 0 267 165 125 236 328 340 1285 1484 1560 1734 1875 1892 1911 2085 2209 2391 2363 1978 1192 447 170 25 31
0 0 0 0 0 0 0 0 0 0 0 0 0 0 0 0 0 0 2 233 384 361 226 232 213 278 398 1371 1516 1567 1814 1867 1909 1872 1967 1915 2187 2262 2168 1777 1663 1215 610 516
0 0 0 0 0 0 0 0 0 0 0 0 0 0 0 0 0 0 211 422 472 470 388 334 304 311 460 1129 1361 1395 1650 1793 1827 1760 1830 1969 2139 2119 2182 2346 1870 2225 2195 1671
0 0 0 0 0 0 0 0 0 0 0 0 0 0 0 19 329 116 54 209 483 611 480 393 369 386 499 743 1207 1243 1503 1714 1781 1751 1831 2118 2174 2168 2103 2484 2397 2178 2334 2152
0 0 0 41 0 0 0 0 12 0 0 0 0 117 1007 667 388 751 1295 1330 1022 393 394 516 459 461 493 684 1021 1222 1500 1756 1800 1725 1689 1457 2410 2411 2407 2462 2629 2628 2332 2336
11 0 0 0 10 3 3 90 8 0 1 287 246 869 760 401 214 195 842 1609 1706 1454 1089 879 501 498 596 863 1060 1305 1599 1992 1954 1784 1694 1239 2267 2654 2776 2513 2424 3152 2733 2463
0 0 0 5 0 2 2 0 117 17 528 617 468 635 328 375 146 166 1005 2009 2112 1919 1739 974 414 1084 1016 1190 1322 1447 1800 2119 2063 1971 1771 2273 2567 2625 2934 2897 2938 3277 2833 2404
0 0 3 0 0 0 0 14 942 567 804 724 570 486 492 110 2 776 2002 2255 2153 1705 1167 1447 438 1304 1477 1711 1638 1690 2039 2108 2022 1924 1993 2992 2966 2896 2923 3213 3425 3422 2958 2393
4 16 2 0 0 0 1 64 23 101 1056 1098 838 689 479 464 106 1098 2235 2282 1669 1233 1060 1273 474 1358 1896 2112 1918 1907 2217 2133 2063 2098 2295 3160 3259 3315 3390 3432 3702 3374 2893 2409
0 0 30 107 212 205 183 102 1 296 959 826 1039 1093 646 786 809 2107 2043 1592 1220 984 898 1659 828 1730 2037 2330 2164 1998 2497 2387 2413 2221 2909 3286 3292 3367 3550 3657 3701 3458 2975 2429
0 6 78 128 213 56 218 50 45 44 193 714 891 1093 956 898 2051 2308 1871 1188 1186 1742 1785 2503 2483 2437 2468 2626 2796 2841 2656 2650 2732 2761 2932 3265 3177 2884 3416 3479 2714 3377 2972 2473
563 262 90 175 133 2 2 4 31 1 0 0 594 1053 915 1046 2325 2381 1614 1504 1645 2678 3003 3019 2909 2899 3059 3117 3160 3085 2864 2781 2683 2736 2989 3160 3096 2659 2792 106 3 0 6 103